Flag for Germany Weather past 2 weeks in Karlsruhe, Baden-Württemberg, Germany

Now
64 °F

Scattered clouds.


Feels Like: 64 °F
Forecast: 56 / 69 °F
Wind: 8 mph from West

Location: Karlsruhe - Baden Wurttemberg

Current Time: Jul 8, 2015 at 9:44:47 AM

Latest Report: Jul 8, 2015 at 9:20 AM


Visibility: N/A

Pressure: 29.95 "Hg

Humidity: 52%

Dew point: 46 °F

Location of KarlsruheLocation

Historic Weather in Karlsruhe — Graph

°F

Karlsruhe temperature yesterday

Maximum temperature yesterday: 97 °F (at 3:50 PM)
Minimum temperature yesterday: 61 °F (at 5:50 AM)
Average temperature yesterday: 80 °F

Past Weeks' High & Low Weather Summary

 TemperatureHumidityPressure
High100 °F (Jul 4, 4:50 PM)94% (Jun 24, 5:20 AM)30.21 "Hg (Jun 24, 5:20 AM)
Low48 °F (Jun 24, 5:20 AM)22% (Jul 4, 4:50 PM)29.71 "Hg (Jul 7, 6:50 PM)
Average75 °F53%30.09 "Hg
* Reported Jun 23 8:20 AM — Jul 8 8:20 AM, Karlsruhe, Weather by CustomWeather, © 2015

Note: Actual official high and low records may vary slightly from our data, if they occured in-between our weather recording intervals... More about our weather records

Advertising

Karlsruhe weather history for previous 24 hours

 ConditionsComfort  
Time TempWeatherWind HumidityBarometerVisibility
8:20 AM
Wed, Jul 8
64 °FBroken clouds.7 mph60%29.95 "HgN/A
7:50 AM64 °FBroken clouds.6 mph60%29.95 "HgN/A
7:20 AM64 °FPassing clouds.6 mph64%29.95 "HgN/A
6:50 AM64 °FPartly sunny.7 mph68%29.92 "HgN/A
6:20 AM64 °FPassing clouds.9 mph68%29.92 "HgN/A
5:20 AM66 °FPassing clouds.8 mph60%29.89 "HgN/A
4:50 AM68 °FPassing clouds.10 mph64%29.89 "HgN/A
4:20 AM70 °FPassing clouds.8 mph64%29.89 "HgN/A
11:50 PM
Tue, Jul 7
68 °FClear.6 mph83%29.83 "Hg10 mi
11:20 PM68 °FPassing clouds.5 mph83%29.83 "HgN/A
10:50 PM68 °FPartly cloudy.7 mph88%29.83 "HgN/A
10:20 PM66 °FThundershowers. Broken clouds.8 mph88%29.83 "HgN/A
9:56 PM68 °FThundershowers. Broken clouds.15 mph78%29.86 "Hg4 mi
9:50 PM72 °FThundershowers. Broken clouds.5 mph78%29.83 "Hg6 mi
9:20 PM72 °FThundershowers. Broken clouds.5 mph78%29.80 "HgN/A
8:50 PM75 °FThundershowers. Broken clouds.9 mph65%29.80 "HgN/A
8:20 PM86 °FPassing clouds.9 mph35%29.74 "HgN/A
7:50 PM88 °FPassing clouds.10 mph38%29.74 "HgN/A
7:20 PM91 °FPassing clouds.6 mph30%29.71 "HgN/A
6:50 PM95 °FPassing clouds.8 mph26%29.71 "HgN/A
6:20 PM95 °FPassing clouds.8 mph25%29.74 "HgN/A
5:50 PM97 °FPassing clouds.8 mph23%29.74 "HgN/A
5:20 PM97 °FPassing clouds.8 mph25%29.77 "HgN/A
4:50 PM97 °FPassing clouds.12 mph28%29.77 "HgN/A
4:20 PM97 °FPassing clouds.8 mph27%29.77 "HgN/A
3:50 PM97 °FPassing clouds.9 mph27%29.80 "HgN/A
3:20 PM95 °FSunny.7 mph32%29.80 "Hg10 mi
2:50 PM95 °FPassing clouds.10 mph32%29.83 "HgN/A
2:20 PM93 °FSunny.13 mph34%29.83 "Hg10 mi
1:50 PM91 °FSunny.9 mph36%29.86 "Hg10 mi
1:20 PM90 °FPassing clouds.9 mph38%29.86 "HgN/A
12:50 PM90 °FPassing clouds.7 mph36%29.86 "HgN/A
12:20 PM86 °FSunny.3 mph43%29.89 "Hg10 mi
11:50 AM84 °FPassing clouds.5 mph45%29.89 "HgN/A
11:20 AM81 °FSunny.3 mph51%29.92 "Hg10 mi
10:50 AM81 °FPassing clouds.5 mph51%29.92 "HgN/A
10:20 AM77 °FSunny.2 mph54%29.92 "Hg10 mi
9:50 AM73 °FSunny.3 mph65%29.92 "Hg10 mi
9:20 AM73 °FSunny.3 mph61%29.95 "Hg10 mi
Weather by CustomWeather, © 2015

See weather overviewHow to use our weather pages